Regional Weather Roundup
Issued by NWS

Home | Current Version | Previous Version | Text Only | Print | Product List | Glossary Off
Versions: 1 2 3 4 5 6 7 8 9 10 11 12 13 14 15 16 17 18 19 20 21 22 23 24 25 26 27 28 29 30 31 32 33 34 35 36 37 38 39 40 41 42 43 44 45 46 47 48 49 50

000
ASUS43 KDMX 250707
RWRIA

WEATHER ROUNDUP FOR IOWA
NATIONAL WEATHER SERVICE DES MOINES IA
200 AM CDT MON MAY 25 2015

NOTE: "FAIR" INDICATES FEW OR NO CLOUDS BELOW 12,000 FEET WITH NO
SIGNIFICANT WEATHER AND/OR OBSTRUCTIONS TO VISIBILITY.

* - THESE STATIONS ARE NOT NWS STATIONS...THUS NOT UNDER NWS
QUALITY CONTROL.  THEY ALSO DO NOT REPORT WEATHER SUCH
AS PRECIPITATION OR FOG.

IAZ001>003-012>014-020>022-031>034-043>046-250800-
   NORTHWEST IOWA

CITY           SKY/WX    TMP DP  RH WIND       PRES   REMARKS
CARROLL *      CLOUDY    63  63 100 SW10      29.75S
CHEROKEE *     CLOUDY    61  61 100 SW6       29.74F FOG
DENISON *      CLOUDY    63  63 100 SW5       29.75R FOG
LE MARS *      CLOUDY    61  61 100 SW5       29.75F
ORANGE CITY *  CLOUDY    59  59 100 W6        29.74F FOG
SHELDON *      FOG       59  57  94 W6        29.72F VSB 1
SIOUX CITY     MOCLDY    60  58  92 W5        29.75F
SPENCER        CLOUDY    61  60  97 SW10      29.73F
STORM LAKE *   CLOUDY    61  61 100 W10       29.75F FOG
$$

IAZ055>058-069>071-079>083-090>094-250800-
   SOUTHWEST IOWA

CITY           SKY/WX    TMP DP  RH WIND       PRES   REMARKS
ATLANTIC *     CLOUDY    63  63 100 S9        29.78S
AUDUBON *      MOCLDY    63  61  94 SW6       29.78S
CLARINDA *     CLOUDY    63  63 100 S5        29.81F
COUNCIL BLFS * PTCLDY    63  63 100 S5        29.78S
CRESTON *      MOCLDY    63  63 100 SW8       29.79S
HARLAN  *      MOCLDY    63  63 100 S7        29.80S
LAMONI         CLOUDY    64  61  90 S7        29.81R
RED OAK *      CLOUDY    63  63 100 S7        29.79F
SHENANDOAH *   MOCLDY    63  63 100 S9        29.79F
$$

IAZ047>049-059>061-072>074-084-250800-
   CENTRAL IOWA

CITY           SKY/WX    TMP DP  RH WIND       PRES   REMARKS
AMES           CLOUDY    64  62  93 S6        29.75F
ANKENY *       LGT RAIN  64  64 100 S8        29.76F
CHARITON *     CLOUDY    64  63  94 SW9       29.79F
DES MOINES     LGT RAIN  64  61  90 SW10      29.76F
GRINNELL*      DRIZZLE   63  61  94 SW6       29.77F
KNOXVILLE *    CLOUDY    63  63 100 SW10      29.76F
MARSHALLTOWN   CLOUDY    63  62  97 S8        29.75F
PELLA *        DRIZZLE   63  63 100 SW5       29.78F
PERRY *        CLOUDY    63  63 100 SW7       29.75F
$$

IAZ004>006-015-016-023>025-035-036-250800-
   NORTH CENTRAL IOWA

CITY           SKY/WX    TMP DP  RH WIND       PRES   REMARKS
ALGONA *       CLOUDY    61  61 100 SW7       29.73F FOG
CLARION *      CLOUDY    63  63 100 SW7       29.74S FOG
ESTHERVILLE    CLOUDY    60  59  96 SW9       29.72F
FORT DODGE *   CLOUDY    61  57  88 SW3       29.75S VSB 1/2
MASON CITY     CLOUDY    63  62  97 SW7       29.74F
FOREST CITY *  CLOUDY    61  61 100 SW6       29.72F FOG
IOWA FALLS *   CLOUDY    63  63 100 S7        29.75F
$$

IAZ007>011-017>019-026>030-037>042-050>054-066-250800-
   NORTHEAST IOWA

CITY           SKY/WX    TMP DP  RH WIND       PRES   REMARKS
CEDAR RAPIDS   LGT RAIN  65  65 100 S6        29.77F
CHARLES CITY * CLOUDY    63  63 100 S6        29.74F FOG
CLINTON *      CLOUDY    66  63  88 SE7       29.81F
DECORAH *      CLOUDY    64  64 100 S7        29.73F FOG
DUBUQUE        CLOUDY    66  64  93 S14       29.78F
MONTICELLO *   CLOUDY    66  66 100 S10       29.78S
OELWEIN *      CLOUDY    64  64 100 S10       29.76S
WATERLOO       CLOUDY    64  62  93 SW9       29.74F
$$

IAZ064-065-067-068-078-250800-
   EAST CENTRAL IOWA

CITY           SKY/WX    TMP DP  RH WIND       PRES   REMARKS
DAVENPORT      CLOUDY    67  64  90 SE7       29.78F
IOWA CITY      LGT RAIN  66  66 100 W3        29.78F
MT. PLEASANT * DRIZZLE   66  66 100 W5        29.76F
MUSCATINE *    LGT RAIN  68  66  94 S7        29.77F
QUAD CITIES    CLOUDY    67  64  90 SE5       29.77F
$$

IAZ062-063-075>077-085>089-095>099-250800-
   SOUTHEAST IOWA

CITY           SKY/WX    TMP DP  RH WIND       PRES   REMARKS
BURLINGTON     LGT RAIN  68  66  93 S17G23    29.74F
FAIRFIELD *    DRIZZLE   64  63  94 W7        29.79S
FORT MADISON * RAIN      66  64  94 SW3       29.77F
KEOKUK *       LGT RAIN  66  66 100 SW7       29.76S
OSKALOOSA *    RAIN      63  63 100 S9        29.79S
CENTERVILLE *  CLOUDY    63  63 100 SW6       29.82S
OTTUMWA        LGT RAIN  64  63  96 S8        29.78F
WASHINGTON *   CLOUDY    66  64  94 SW7       29.79F
$$

ABBREVIATIONS USED IN REMARKS
   TC - TEMPERATURES IN CELSIUS
  WCI - WIND CHILL INDEX
   HX - HEAT INDEX
  VSB - VISIBILITY
$$



USA.gov is the U.S. government's official web portal to all federal, state and local government web resources and services.